Main page
METAR-TAF:

METAR-TAF

Airports :

Semnan, Iran

latitude: 35-33N, longitude: 053-23E, elevation: 1171 m

Current weather observation

The report was made 1 hour and 8 minutes ago, at 02:00 UTC
Wind 4 kt from the East/Southeast
Temperature 8°C
Humidity 29%
Pressure 1022 hPa
Visibility 10 km or more
Few clouds at a height of 4000 ft
Scattered clouds at a height of 19000 ft

METAR: OIIS 260200Z 12004KT 9999 FEW040 SCT190 08/M09 Q1022

Time: 07:38 (03:08 UTC)


TAF: missing

Weather observations and forecasts of more than 4000 airports (METAR and TAF reports).

The available stations are represented by yellow and red dots on the map.

Hover mouse over dot to see the name of the station.

Then click to see weather observations and forecasts.

To change the map : click on the green buttons with a black cross to zoom in, on the green button with a dash to zoom out, or on the green arrows for adjacent maps.


METAR-TAF: